Location: Eschentzwiller
(47.7125°N, 7.3981°E)
Time: 04:36:54
(UTC+00:00)

USA 307 - Pass Details

Date: 27 October 2020
Orbit: 569 x 579 km, 54.0° (Epoch: 30 November)

Event Time Altitude Azimuth Distance (km) Brightness Sun altitude
Rises 16:53:10 0° 293° (WNW) 2,792 7.4 -6.2°
Reaches altitude 10° 16:55:33 10° 301° (WNW) 1,890 6.3 -6.6°
Maximum altitude 16:59:37 40° 12° (NNE) 860 3.6 -7.2°
Drops below altitude 10° 17:03:39 10° 83° (E) 1,880 4.8 -7.9°
Enters shadow 17:03:40 10° 83° (E) 1,882 4.8 -7.9°
